TimeCDT,TemperatureF,Dew PointF,Humidity,Sea Level PressureIn,VisibilityMPH,Wind Direction,Wind SpeedMPH,Gust SpeedMPH,PrecipitationIn,Events,Conditions,WindDirDegrees,DateUTC
12:15 AM,50.0,48.6,95,30.13,10.0,Calm,Calm,-,N/A,,Clear,0,2013-10-09 05:15:00
12:35 AM,49.5,48.6,97,30.12,10.0,Calm,Calm,-,N/A,,Clear,0,2013-10-09 05:35:00
12:55 AM,49.3,48.6,97,30.12,10.0,Calm,Calm,-,N/A,,Clear,0,2013-10-09 05:55:00
1:15 AM,48.0,48.0,100,30.12,10.0,Calm,Calm,-,N/A,,Clear,0,2013-10-09 06:15:00
1:35 AM,48.9,48.9,100,30.12,10.0,Calm,Calm,-,N/A,,Clear,0,2013-10-09 06:35:00
1:55 AM,48.0,48.0,100,30.12,10.0,Calm,Calm,-,N/A,,Clear,0,2013-10-09 06:55:00
2:15 AM,48.2,48.2,100,30.12,10.0,Calm,Calm,-,N/A,,Clear,0,2013-10-09 07:15:00
2:35 AM,47.8,47.8,100,30.11,10.0,Calm,Calm,-,N/A,,Clear,0,2013-10-09 07:35:00
2:55 AM,47.8,47.8,100,30.11,10.0,Calm,Calm,-,N/A,,Clear,0,2013-10-09 07:55:00
3:15 AM,47.7,47.7,100,30.11,10.0,Calm,Calm,-,N/A,,Clear,0,2013-10-09 08:15:00
3:35 AM,47.7,47.7,100,30.11,10.0,Calm,Calm,-,N/A,,Clear,0,2013-10-09 08:35:00
3:55 AM,47.5,47.5,100,30.11,10.0,Calm,Calm,-,N/A,,Clear,0,2013-10-09 08:55:00
4:15 AM,47.5,47.5,100,30.11,7.0,Calm,Calm,-,N/A,,Clear,0,2013-10-09 09:15:00
4:35 AM,46.9,46.9,100,30.11,10.0,Calm,Calm,-,N/A,,Clear,0,2013-10-09 09:35:00
4:55 AM,47.5,47.5,100,30.12,10.0,Calm,Calm,-,N/A,,Clear,0,2013-10-09 09:55:00
5:15 AM,46.9,46.9,100,30.12,10.0,Calm,Calm,-,N/A,,Clear,0,2013-10-09 10:15:00
5:35 AM,47.1,47.1,100,30.12,10.0,Calm,Calm,-,N/A,,Clear,0,2013-10-09 10:35:00
5:55 AM,47.3,47.3,100,30.12,10.0,Calm,Calm,-,N/A,,Clear,0,2013-10-09 10:55:00
6:15 AM,47.5,47.5,100,30.13,10.0,Calm,Calm,-,N/A,,Clear,0,2013-10-09 11:15:00
6:35 AM,47.1,47.1,100,30.13,10.0,Calm,Calm,-,N/A,,Clear,0,2013-10-09 11:35:00
6:55 AM,47.1,47.1,100,30.14,10.0,Calm,Calm,-,N/A,,Scattered Clouds,0,2013-10-09 11:55:00
7:15 AM,48.4,48.4,100,30.14,10.0,Calm,Calm,-,N/A,,Mostly Cloudy,0,2013-10-09 12:15:00
7:35 AM,50.0,50.0,100,30.15,10.0,Calm,Calm,-,N/A,,Mostly Cloudy,0,2013-10-09 12:35:00
7:55 AM,52.0,52.0,100,30.16,10.0,Calm,Calm,-,N/A,,Scattered Clouds,0,2013-10-09 12:55:00
8:15 AM,54.1,52.7,95,30.16,10.0,Calm,Calm,-,N/A,,Clear,0,2013-10-09 13:15:00
8:35 AM,55.2,53.4,94,30.17,10.0,Calm,Calm,-,N/A,,Scattered Clouds,0,2013-10-09 13:35:00
8:55 AM,57.6,52.5,83,30.17,10.0,Calm,Calm,-,N/A,,Mostly Cloudy,0,2013-10-09 13:55:00
9:15 AM,60.3,53.2,78,30.17,10.0,Calm,Calm,-,N/A,,Scattered Clouds,0,2013-10-09 14:15:00
9:35 AM,62.2,53.6,73,30.17,10.0,Calm,Calm,-,N/A,,Clear,0,2013-10-09 14:35:00
9:55 AM,64.0,54.1,70,30.18,10.0,Calm,Calm,-,N/A,,Clear,0,2013-10-09 14:55:00
10:15 AM,65.7,55.0,69,30.18,10.0,Calm,Calm,-,N/A,,Scattered Clouds,0,2013-10-09 15:15:00
10:35 AM,66.7,55.8,68,30.18,10.0,Calm,Calm,-,N/A,,Scattered Clouds,0,2013-10-09 15:35:00
10:55 AM,67.6,56.3,67,30.18,10.0,Calm,Calm,-,N/A,,Clear,0,2013-10-09 15:55:00
11:15 AM,68.9,57.2,66,30.17,10.0,Calm,Calm,-,N/A,,Clear,0,2013-10-09 16:15:00
11:35 AM,70.5,58.1,65,30.17,10.0,South,4.6,-,N/A,,Clear,190,2013-10-09 16:35:00
11:55 AM,71.6,59.0,64,30.17,10.0,SW,3.5,-,N/A,,Clear,220,2013-10-09 16:55:00
12:15 PM,72.3,59.4,64,30.16,10.0,West,4.6,-,N/A,,Clear,270,2013-10-09 17:15:00
12:35 PM,73.4,59.9,63,30.16,10.0,Calm,Calm,-,N/A,,Mostly Cloudy,0,2013-10-09 17:35:00
12:55 PM,73.4,59.9,63,30.15,10.0,West,3.5,-,N/A,,Mostly Cloudy,260,2013-10-09 17:55:00
1:15 PM,72.3,59.7,64,30.14,10.0,Calm,Calm,-,N/A,,Scattered Clouds,0,2013-10-09 18:15:00
1:35 PM,74.7,60.6,61,30.13,10.0,West,3.5,-,N/A,,Clear,280,2013-10-09 18:35:00
1:55 PM,75.2,60.6,60,30.13,10.0,SSW,4.6,-,N/A,,Scattered Clouds,200,2013-10-09 18:55:00
2:15 PM,75.4,60.3,59,30.12,10.0,Calm,Calm,-,N/A,,Scattered Clouds,0,2013-10-09 19:15:00
2:35 PM,74.3,60.1,61,30.12,10.0,West,3.5,-,N/A,,Scattered Clouds,270,2013-10-09 19:35:00
2:55 PM,74.8,60.1,60,30.11,10.0,Calm,Calm,-,N/A,,Scattered Clouds,0,2013-10-09 19:55:00
3:15 PM,76.1,59.7,57,30.11,10.0,West,3.5,-,N/A,,Clear,260,2013-10-09 20:15:00
3:55 PM,76.1,59.2,56,30.11,10.0,Calm,Calm,-,N/A,,Scattered Clouds,0,2013-10-09 20:55:00
4:15 PM,75.2,59.4,58,30.10,10.0,Calm,Calm,-,N/A,,Scattered Clouds,0,2013-10-09 21:15:00
4:35 PM,76.6,58.5,53,30.10,10.0,Calm,Calm,-,N/A,,Clear,0,2013-10-09 21:35:00
4:55 PM,76.8,58.8,54,30.10,10.0,Calm,Calm,-,N/A,,Clear,0,2013-10-09 21:55:00
5:15 PM,76.6,59.2,55,30.10,10.0,Calm,Calm,-,N/A,,Clear,0,2013-10-09 22:15:00
5:35 PM,75.4,60.1,59,30.10,10.0,Calm,Calm,-,N/A,,Clear,0,2013-10-09 22:35:00
5:55 PM,74.3,61.0,63,30.09,10.0,Calm,Calm,-,N/A,,Clear,0,2013-10-09 22:55:00
6:15 PM,70.5,61.5,73,30.09,10.0,Calm,Calm,-,N/A,,Clear,0,2013-10-09 23:15:00
6:55 PM,66.0,60.8,83,30.10,10.0,Calm,Calm,-,N/A,,Clear,0,2013-10-09 23:55:00
7:15 PM,65.1,62.8,92,30.10,10.0,Calm,Calm,-,N/A,,Clear,0,2013-10-10 00:15:00
7:35 PM,64.0,63.9,99,30.11,10.0,Calm,Calm,-,N/A,,Clear,0,2013-10-10 00:35:00
7:55 PM,63.0,63.0,100,30.11,10.0,Calm,Calm,-,N/A,,Clear,0,2013-10-10 00:55:00
8:15 PM,63.1,63.1,100,30.11,10.0,Calm,Calm,-,N/A,,Clear,0,2013-10-10 01:15:00
8:35 PM,60.8,60.8,100,30.11,7.0,Calm,Calm,-,N/A,,Clear,0,2013-10-10 01:35:00
8:55 PM,61.7,61.7,100,30.11,7.0,Calm,Calm,-,N/A,,Scattered Clouds,0,2013-10-10 01:55:00
9:15 PM,61.3,61.3,100,30.11,7.0,Calm,Calm,-,N/A,,Scattered Clouds,0,2013-10-10 02:15:00
9:35 PM,61.3,61.3,100,30.11,7.0,Calm,Calm,-,N/A,,Mostly Cloudy,0,2013-10-10 02:35:00
9:55 PM,61.7,61.7,100,30.12,7.0,Calm,Calm,-,N/A,,Mostly Cloudy,0,2013-10-10 02:55:00
10:15 PM,61.9,61.9,100,30.12,7.0,Calm,Calm,-,N/A,,Mostly Cloudy,0,2013-10-10 03:15:00
10:35 PM,60.8,60.8,100,30.12,5.0,Calm,Calm,-,N/A,,Scattered Clouds,0,2013-10-10 03:35:00
10:55 PM,60.8,60.8,100,30.12,4.0,Calm,Calm,-,N/A,,Scattered Clouds,0,2013-10-10 03:55:00
11:15 PM,60.3,60.3,100,30.12,3.0,Calm,Calm,-,N/A,,Scattered Clouds,0,2013-10-10 04:15:00
11:55 PM,60.3,60.3,100,30.11,2.5,Calm,Calm,-,N/A,,Scattered Clouds,0,2013-10-10 04:55:00